Location: Dillon
(41.1766°N, 107.0923°W)
Time: 07:32:11
(UTC+00:00)

QB50P2 - Pass Details

Date: 03 July 2022
Orbit: 590 x 605 km, 97.9° (Epoch: 17 August)

Event Time Altitude Azimuth Distance (km) Brightness Sun altitude
Rises 08:30:18 0° 13° (NNE) 2,861 ? -23.4°
Reaches altitude 10° 08:32:29 10° 14° (NNE) 1,956 ? -23.3°
Maximum altitude 08:36:45 84° 104° (ESE) 613 ? -23.0°
Enters shadow 08:37:00 78° 163° (SSE) 623 ? -23.0°
